Wind_Speed
29 30 30 30 30 30 30 30 31 31 32 32 32 32 33 34 35 35 35 35 36 36 37 37 37 38 38 39 39 39 39 40 39 39 38 38 38 37 37 36 33 32 32 32 33 33 33 33 35 36 38 41
26 28 28 28 29 29 29 30 30 31 30 30 29 29 30 31 31 31 32 33 33 34 34 33 33 32 33 34 34 35 35 36 36 37 37 37 37 37 37 36 34 33 32 33 32 31 32 33 34 36 37 38
25 26 27 27 27 28 28 28 29 29 29 29 28 28 28 28 29 28 29 31 31 31 31 30 30 29 28 29 30 30 30 31 32 33 34 34 35 36 36 35 34 33 33 33 32 31 33 33 34 35 36 37
27 26 27 26 26 27 28 28 29 29 29 28 28 27 27 27 27 26 27 28 28 28 29 28 27 26 25 25 26 26 27 27 28 29 31 31 32 33 33 33 34 33 33 33 33 33 33 33 35 34 34 35
27 27 28 27 27 28 28 29 30 30 29 28 27 27 26 26 26 25 26 26 25 26 27 26 25 24 23 23 23 24 24 25 26 26 27 29 30 31 31 32 33 33 32 33 34 35 33 33 34 33 34 36
26 26 27 27 27 29 29 29 30 30 29 28 27 27 26 26 25 24 25 25 23 24 25 25 24 22 21 21 22 23 23 23 24 24 25 26 27 28 29 30 31 31 31 32 34 34 34 33 34 34 35 35
26 27 27 27 27 28 29 29 29 30 29 29 28 27 27 26 26 25 24 24 22 23 24 24 24 22 21 20 21 22 23 23 23 23 23 24 25 26 27 28 29 30 30 31 32 33 33 34 33 33 33 32
27 28 28 27 27 27 28 29 29 30 29 29 29 28 28 27 27 26 25 24 22 22 22 23 23 23 21 20 21 22 23 23 24 23 23 23 24 25 25 26 27 28 29 31 32 33 34 34 34 34 34 34
29 29 28 27 27 27 28 28 28 29 29 28 28 28 28 27 27 26 26 24 23 22 22 22 22 23 22 22 22 22 22 23 24 25 25 24 24 25 25 26 26 27 28 30 32 33 34 35 35 36 37 36
30 30 29 29 28 28 28 28 28 28 28 28 27 28 28 28 27 26 26 25 23 22 21 22 22 22 22 23 23 22 22 23 24 25 26 26 25 26 26 26 26 27 28 29 30 32 33 34 34 36 37 36
30 30 30 30 29 29 29 28 28 28 27 27 26 27 27 27 27 26 26 25 24 23 22 22 21 22 22 23 23 23 23 23 23 24 25 26 26 26 26 27 27 27 28 28 29 31 32 33 33 34 34 34
30 30 30 30 30 30 29 28 28 28 27 27 26 26 27 27 26 26 26 24 24 24 23 22 22 21 22 22 23 23 24 24 24 24 24 25 25 26 26 27 28 28 28 29 30 30 31 32 32 32 32 32
30 30 30 30 30 30 29 28 28 27 27 26 26 26 26 26 26 26 26 25 24 23 23 23 22 22 22 22 23 23 24 24 25 25 25 25 25 25 25 27 28 28 29 29 30 30 30 30 30 30 30 30
29 30 30 30 30 29 28 28 27 27 26 26 26 25 25 25 25 26 26 25 24 24 23 23 23 23 22 22 23 24 24 24 25 25 25 25 25 25 25 26 27 27 28 28 29 30 30 29 29 29 29 30
29 29 29 29 28 28 27 26 26 26 25 25 25 24 25 25 25 25 25 25 25 24 24 23 23 23 23 23 23 24 24 24 25 25 25 25 25 25 26 26 26 27 27 27 28 28 29 29 28 28 29 29
29 28 28 28 27 27 26 26 25 24 24 24 24 24 23 24 24 24 25 24 24 25 25 24 24 23 23 23 23 24 24 24 25 25 25 26 26 26 26 26 27 27 27 28 28 28 28 28 28 28 29 29
28 27 26 26 26 25 25 25 25 24 24 24 24 24 23 23 24 24 24 24 24 24 24 25 24 24 24 23 23 24 24 24 24 24 24 25 26 26 26 26 26 26 27 27 28 28 28 29 29 29 29 30
26 25 25 25 25 25 25 25 25 25 25 25 25 25 25 25 25 25 25 24 24 24 24 24 24 24 24 24 24 24 24 24 24 23 23 24 24 25 25 26 26 26 26 27 27 27 28 28 29 29 30 30
24 24 24 25 25 25 25 26 26 26 26 26 26 26 26 26 26 26 26 25 25 24 24 24 24 24 24 24 24 24 24 24 24 23 23 24 24 24 24 25 25 25 26 26 26 27 27 27 28 28 29 30
23 24 24 24 25 25 26 26 26 26 26 26 27 26 26 26 26 26 26 26 25 25 24 24 24 24 24 24 24 23 23 24 23 23 23 23 24 24 24 24 25 25 25 25 26 26 26 27 27 28 29 30
23 23 24 24 24 25 25 25 25 25 25 25 26 26 25 25 25 25 25 24 24 24 24 23 23 23 23 23 23 23 23 23 23 23 23 23 23 23 23 24 24 25 25 25 25 26 26 27 27 28 29 30
22 23 23 23 24 24 24 24 25 24 24 24 24 23 23 23 23 22 22 22 21 21 21 21 21 21 21 21 21 21 22 22 22 22 22 23 23 23 23 23 23 24 24 24 25 25 26 27 28 28 29 30
21 22 22 22 22 22 22 22 22 22 22 21 21 20 20 19 19 19 18 18 18 18 18 17 18 18 18 18 18 19 19 20 20 21 21 22 22 22 23 23 23 23 24 24 24 25 26 27 27 28 29 30
20 21 21 21 21 20 20 19 19 19 18 18 17 17 16 16 15 15 14 14 14 13 13 13 13 13 13 14 14 14 15 15 16 16 17 18 18 19 20 20 21 21 22 22 23 24 25 26 26 27 28 28
19 19 20 20 20 19 18 18 17 17 16 16 15 14 14 13 12 12 11 11 10 10 10 10 10 10 10 10 10 11 11 11 12 12 13 13 14 14 15 15 16 17 17 17 18 19 20 21 22 24 24 25
18 19 19 19 19 19 18 18 17 16 16 15 14 14 13 12 11 11 10 10 10 10 10 10 10 10 10 10 10 10 11 11 11 11 12 12 12 13 13 14 14 15 16 16 16 17 17 18 18 19 19 20
18 18 18 18 18 18 18 18 18 17 16 16 15 14 13 12 11 11 11 11 11 11 12 12 12 12 12 12 12 12 12 13 13 13 13 14 14 14 14 15 15 16 16 17 17 17 18 18 18 17 17 18
17 18 19 18 18 18 18 18 18 18 17 17 16 15 14 14 13 13 13 13 14 14 14 14 14 14 14 14 14 14 15 15 15 15 15 16 16 16 17 17 18 18 18 19 19 20 20 20 20 20 19 19
18 18 19 19 19 19 19 19 19 19 19 19 19 18 17 17 16 16 16 16 16 16 16 16 16 16 16 16 16 16 16 17 17 17 17 17 18 18 18 19 19 20 20 21 21 21 22 21 21 22 21 21
18 18 19 19 20 20 20 20 20 21 21 21 21 21 20 20 19 19 18 18 18 17 17 17 17 18 18 18 18 18 18 18 18 18 18 18 19 19 20 20 21 21 22 22 23 23 23 23 23 23 23 23
18 19 19 20 20 20 20 21 21 21 22 22 22 22 22 22 21 21 21 20 19 19 19 18 18 18 18 18 19 19 19 19 19 19 19 19 20 20 20 21 21 22 22 23 23 24 24 24 25 25 25 25
Wind_Direction
288 289 289 289 289 289 289 288 289 289 290 292 293 293 292 290 289 288 288 288 287 286 285 284 282 280 277 275 272 270 269 268 267 267 267 267 268 270 271 271 272 273 272 271 270 270 269 270 271 272 272 271
288 288 287 287 287 288 288 288 289 290 291 293 293 294 293 291 291 291 292 291 291 291 290 289 287 285 282 277 274 271 269 268 266 266 265 265 266 267 269 272 274 274 270 267 266 266 268 270 271 274 274 274
291 289 287 287 287 287 287 288 288 290 291 293 294 294 293 292 293 294 294 292 293 293 292 292 291 290 286 280 275 272 270 269 267 266 265 265 265 266 268 270 271 271 269 268 268 268 268 269 271 274 273 274
296 294 292 292 291 290 289 290 290 290 292 293 294 294 294 294 294 295 293 292 294 293 291 291 291 292 290 283 278 274 271 270 269 268 266 265 265 265 266 266 267 268 269 271 274 274 270 269 272 272 271 272
296 296 295 296 295 293 293 292 292 292 292 293 293 294 294 294 294 295 292 292 294 291 288 288 290 292 292 286 279 275 273 271 270 269 268 268 267 266 265 264 265 265 267 269 272 273 270 269 271 270 272 272
295 295 294 296 295 294 294 294 293 294 294 294 294 294 294 294 294 294 293 293 292 288 286 286 287 290 293 289 281 276 274 273 271 270 270 270 269 268 266 265 265 265 265 266 268 270 271 270 270 271 272 271
295 294 294 295 294 294 294 294 295 295 296 296 297 296 295 295 294 294 294 293 292 288 285 284 284 286 289 289 285 278 274 273 272 271 270 270 269 268 267 265 265 265 264 264 265 267 268 269 271 273 272 271
297 296 296 297 295 295 295 296 297 297 298 298 298 297 296 295 294 294 294 294 292 289 286 284 283 283 284 285 286 282 276 272 271 271 270 269 268 268 267 266 265 264 263 263 264 265 266 268 271 272 272 272
300 299 299 300 298 298 298 298 299 299 299 299 298 297 296 295 294 294 294 294 292 289 287 285 283 281 281 281 282 282 280 275 271 270 269 269 268 268 267 266 265 264 263 263 263 264 266 267 268 269 271 273
300 300 301 301 301 301 301 301 300 299 299 298 298 296 296 295 294 295 294 294 292 290 287 284 283 281 279 279 279 280 280 278 274 271 269 269 268 268 267 266 266 264 264 263 263 264 265 266 266 268 271 273
301 301 301 302 302 301 301 301 299 298 297 296 296 294 294 294 294 293 292 293 292 291 288 285 283 281 279 278 278 278 278 278 277 275 272 270 269 268 267 266 266 265 265 264 265 265 265 266 267 268 270 271
302 302 302 302 301 301 300 300 298 297 296 295 294 293 292 292 292 291 290 291 291 291 289 287 285 282 280 279 277 277 277 277 277 277 276 275 273 270 268 267 267 267 267 266 267 267 268 268 269 270 271 271
302 302 302 302 301 301 301 300 298 297 295 294 293 292 291 291 290 289 289 289 289 289 289 288 286 284 282 280 279 277 277 276 276 277 277 276 276 274 272 270 270 269 269 269 269 269 270 271 271 271 270 270
302 302 302 302 301 301 301 300 299 297 296 294 293 292 291 289 288 288 288 288 287 286 287 287 286 285 283 281 280 278 277 277 276 276 276 276 276 275 275 274 273 272 271 272 272 272 273 274 273 271 270 269
303 302 302 301 301 301 301 300 299 298 297 295 294 293 291 290 288 287 286 286 286 286 285 284 284 284 284 283 281 279 278 277 277 276 276 276 275 275 275 275 274 274 274 274 274 274 275 275 274 272 272 271
304 303 302 301 301 301 301 300 300 299 297 296 296 294 293 292 290 288 287 286 286 285 285 284 283 283 283 282 282 281 279 278 278 277 277 276 276 275 274 274 274 275 275 275 275 275 275 274 273 272 271 271
304 303 302 301 301 301 301 301 300 300 298 297 296 295 294 293 292 291 290 289 288 286 285 284 284 283 281 281 281 281 281 280 279 279 278 277 277 276 275 274 274 274 274 275 276 276 276 276 276 275 274 273
302 301 301 301 301 301 301 300 300 300 299 298 297 296 295 294 293 293 292 291 290 289 287 286 285 284 283 281 280 280 281 281 280 281 279 279 278 278 277 275 274 273 273 274 274 275 276 277 278 279 278 278
300 300 301 301 301 300 300 300 300 299 299 298 297 296 295 294 294 293 293 292 291 290 289 287 286 285 284 283 282 281 280 280 280 280 280 280 279 279 278 277 275 274 273 273 273 273 274 275 277 278 278 278
300 301 302 302 301 301 301 300 300 299 299 297 297 296 295 294 294 294 293 293 292 291 289 288 286 285 284 284 284 283 283 282 282 281 280 280 279 278 278 278 277 276 275 274 274 274 274 274 274 275 276 277
302 304 304 304 303 303 302 302 302 301 300 299 298 297 297 296 295 294 294 294 293 292 291 289 288 286 285 284 284 284 284 284 284 284 283 282 281 280 278 278 278 277 277 276 275 275 274 274 274 274 275 275
306 307 307 307 306 306 305 304 304 303 302 302 300 299 298 298 297 296 295 295 294 294 293 292 290 289 288 287 286 285 284 284 284 284 284 284 284 283 282 281 279 278 278 277 276 275 274 274 273 274 274 274
308 309 310 310 311 310 309 308 307 306 305 305 304 302 301 301 300 300 299 299 299 298 298 297 296 295 293 292 291 290 289 288 287 287 287 287 286 286 285 285 283 282 281 280 278 277 276 275 274 274 274 274
313 314 315 316 317 317 316 315 314 313 313 313 312 311 310 310 309 309 309 308 308 309 308 307 306 305 304 303 303 301 300 299 297 297 295 294 293 293 292 291 290 288 286 284 282 281 280 280 280 279 279 279
320 321 321 323 324 324 325 325 324 324 324 323 323 323 323 323 322 321 322 322 322 323 324 324 324 324 324 322 323 321 320 318 316 314 312 309 308 307 306 304 302 300 297 294 291 289 287 286 286 285 285 285
330 330 328 329 330 331 333 332 331 331 330 330 330 329 328 328 329 329 329 331 333 334 333 334 334 335 335 335 334 333 332 330 328 326 323 321 319 317 316 315 313 311 310 307 303 300 297 294 291 290 290 289
336 337 334 333 334 334 335 334 333 332 331 330 328 326 326 326 328 329 331 333 333 332 332 332 332 332 333 333 333 333 332 330 328 326 324 323 322 321 318 317 316 314 314 312 309 307 305 304 301 299 297 294
338 339 338 337 336 335 334 334 332 330 328 326 325 323 323 324 325 326 327 328 328 327 327 326 327 327 328 329 329 329 329 327 326 325 324 323 322 322 320 319 318 317 316 315 313 313 310 309 307 305 304 301
335 337 338 337 336 335 334 333 331 329 327 326 325 323 322 321 321 321 321 321 320 320 320 320 321 321 322 323 323 323 323 323 322 321 321 320 319 320 319 319 318 318 318 316 315 314 312 311 309 307 306 305
331 332 333 332 332 332 331 330 329 328 327 326 324 322 321 319 317 316 315 314 314 313 313 314 314 315 316 317 318 318 318 317 317 316 316 316 317 317 317 318 318 318 318 317 316 315 313 312 310 308 306 305
327 328 330 329 329 329 328 329 328 326 324 323 322 321 319 317 316 314 312 310 309 309 309 309 309 310 311 312 313 314 314 314 313 313 314 314 315 316 316 316 317 317 317 317 316 316 314 312 310 308 307 306
Height
3159 3157 3156 3155 3154 3153 3152 3151 3150 3149 3148 3148 3147 3146 3145 3143 3142 3141 3141 3140 3139 3138 3137 3136 3135 3134 3134 3134 3134 3135 3135 3135 3136 3136 3137 3137 3137 3137 3137 3137 3138 3138 3138 3138 3138 3138 3138 3138 3137 3137 3136 3136
3157 3155 3153 3152 3151 3150 3149 3148 3147 3146 3145 3144 3143 3142 3141 3140 3139 3138 3138 3137 3135 3134 3133 3132 3131 3130 3130 3129 3130 3130 3130 3131 3131 3132 3132 3133 3133 3133 3134 3134 3134 3134 3134 3134 3133 3133 3134 3134 3134 3133 3133 3133
3155 3153 3151 3150 3149 3148 3146 3145 3144 3143 3142 3141 3140 3139 3137 3136 3135 3135 3135 3133 3132 3131 3130 3129 3128 3127 3126 3126 3126 3126 3126 3127 3127 3127 3128 3128 3129 3129 3130 3131 3131 3130 3130 3130 3129 3129 3130 3130 3130 3129 3129 3129
3151 3151 3149 3148 3147 3146 3144 3143 3141 3140 3139 3138 3137 3136 3134 3133 3132 3132 3131 3130 3130 3129 3127 3126 3125 3124 3123 3123 3122 3122 3123 3123 3123 3124 3124 3124 3125 3125 3126 3127 3127 3127 3127 3128 3127 3127 3127 3127 3127 3126 3125 3125
3149 3148 3146 3146 3145 3143 3142 3141 3139 3138 3137 3136 3134 3133 3131 3130 3129 3128 3127 3126 3127 3126 3124 3124 3123 3122 3121 3120 3120 3119 3119 3120 3120 3121 3121 3121 3121 3122 3123 3124 3124 3124 3124 3125 3125 3124 3124 3124 3123 3122 3121 3121
3146 3145 3143 3143 3142 3141 3140 3139 3138 3136 3135 3134 3132 3131 3129 3127 3126 3125 3124 3123 3123 3122 3121 3121 3120 3119 3119 3118 3117 3117 3117 3117 3117 3118 3118 3118 3118 3118 3119 3120 3120 3120 3121 3121 3121 3122 3121 3120 3119 3118 3118 3118
3143 3142 3141 3141 3139 3138 3137 3136 3135 3134 3133 3131 3130 3128 3127 3125 3123 3122 3121 3120 3120 3119 3118 3117 3117 3117 3116 3116 3115 3114 3114 3114 3115 3115 3115 3115 3115 3115 3116 3116 3116 3117 3117 3117 3118 3118 3117 3116 3116 3115 3114 3114
3141 3140 3139 3138 3137 3135 3134 3133 3132 3130 3129 3129 3127 3126 3125 3123 3121 3120 3119 3117 3116 3115 3115 3114 3114 3113 3114 3113 3113 3112 3112 3112 3112 3112 3112 3112 3112 3112 3112 3113 3113 3113 3113 3113 3114 3113 3113 3113 3112 3111 3111 3111
3138 3137 3136 3135 3134 3133 3131 3130 3129 3127 3126 3125 3124 3123 3122 3121 3119 3118 3117 3115 3114 3112 3111 3111 3110 3110 3110 3111 3110 3110 3109 3109 3109 3109 3109 3110 3110 3109 3109 3109 3109 3110 3110 3110 3110 3110 3110 3109 3109 3108 3107 3108
3135 3134 3133 3132 3131 3130 3128 3127 3126 3124 3123 3122 3121 3119 3118 3118 3117 3116 3114 3113 3111 3110 3109 3108 3107 3107 3107 3107 3107 3107 3107 3106 3106 3106 3106 3106 3106 3106 3106 3106 3106 3106 3106 3106 3106 3106 3106 3106 3105 3105 3104 3104
3132 3131 3130 3129 3128 3127 3125 3124 3123 3122 3120 3119 3118 3117 3115 3114 3114 3113 3111 3110 3109 3108 3107 3105 3105 3104 3104 3104 3104 3104 3104 3104 3104 3103 3103 3103 3103 3103 3103 3103 3103 3103 3102 3102 3102 3102 3102 3102 3101 3101 3101 3100
3129 3128 3127 3126 3125 3124 3123 3121 3120 3119 3117 3116 3115 3114 3113 3111 3110 3109 3108 3108 3107 3105 3104 3103 3102 3101 3101 3101 3100 3101 3101 3100 3100 3100 3100 3100 3100 3100 3100 3100 3099 3099 3099 3099 3099 3098 3098 3098 3098 3097 3097 3097
3127 3125 3124 3123 3122 3121 3120 3118 3117 3116 3115 3114 3112 3111 3110 3109 3108 3106 3105 3105 3104 3103 3102 3101 3100 3099 3098 3098 3097 3097 3097 3097 3097 3097 3097 3097 3097 3097 3097 3097 3096 3096 3096 3096 3095 3095 3095 3095 3094 3094 3094 3094
3124 3123 3122 3121 3119 3118 3117 3116 3114 3113 3112 3111 3110 3108 3107 3106 3105 3104 3103 3102 3101 3100 3099 3098 3097 3097 3096 3095 3095 3094 3094 3094 3094 3094 3094 3094 3094 3094 3094 3093 3093 3093 3093 3092 3092 3092 3091 3091 3091 3091 3091 3091
3122 3121 3119 3118 3117 3116 3114 3113 3112 3111 3109 3108 3107 3106 3104 3103 3102 3101 3100 3099 3098 3097 3096 3095 3095 3094 3094 3093 3092 3092 3092 3091 3091 3091 3091 3090 3090 3090 3090 3090 3089 3089 3089 3089 3089 3088 3088 3088 3088 3087 3087 3087
3120 3119 3117 3116 3115 3113 3112 3111 3110 3108 3107 3106 3104 3103 3102 3101 3100 3098 3098 3097 3096 3095 3094 3093 3092 3091 3091 3090 3090 3089 3089 3089 3088 3088 3088 3087 3087 3087 3087 3086 3086 3086 3086 3086 3085 3085 3085 3085 3084 3084 3084 3084
3118 3117 3115 3114 3113 3111 3110 3109 3107 3106 3105 3103 3102 3101 3100 3099 3097 3096 3095 3094 3093 3092 3091 3090 3090 3089 3088 3087 3087 3086 3086 3086 3085 3085 3085 3084 3084 3084 3084 3083 3083 3083 3082 3082 3082 3082 3082 3081 3081 3081 3081 3081
3116 3115 3114 3112 3111 3110 3108 3107 3105 3104 3102 3101 3100 3098 3097 3096 3095 3094 3093 3092 3091 3090 3089 3088 3087 3086 3085 3085 3084 3084 3083 3083 3083 3082 3082 3082 3081 3081 3081 3080 3080 3080 3079 3079 3079 3079 3079 3078 3078 3078 3077 3077
3114 3113 3112 3111 3109 3108 3106 3105 3103 3102 3100 3099 3097 3096 3095 3094 3093 3091 3090 3089 3089 3088 3087 3086 3085 3084 3083 3082 3081 3081 3080 3080 3080 3079 3079 3079 3078 3078 3077 3077 3077 3077 3076 3076 3076 3076 3076 3075 3075 3074 3074 3073
3112 3111 3110 3109 3107 3106 3104 3103 3101 3100 3098 3097 3095 3094 3093 3091 3090 3089 3088 3087 3086 3085 3085 3084 3083 3082 3081 3080 3079 3078 3078 3077 3077 3076 3076 3076 3075 3075 3075 3074 3074 3073 3073 3073 3073 3073 3072 3072 3071 3071 3070 3070
3111 3110 3108 3107 3106 3104 3102 3101 3099 3098 3096 3095 3093 3092 3091 3089 3088 3087 3086 3085 3084 3083 3082 3081 3080 3079 3078 3078 3077 3076 3075 3074 3074 3073 3073 3073 3072 3072 3072 3071 3071 3070 3070 3070 3070 3069 3069 3068 3068 3067 3067 3066
3109 3108 3107 3105 3104 3102 3100 3099 3097 3095 3094 3093 3091 3090 3089 3088 3086 3085 3084 3083 3082 3081 3080 3079 3078 3077 3076 3075 3074 3074 3073 3072 3071 3071 3070 3070 3069 3069 3069 3068 3068 3067 3067 3067 3066 3066 3065 3065 3065 3064 3064 3063
3108 3106 3105 3103 3102 3100 3099 3097 3095 3094 3092 3091 3090 3088 3087 3086 3085 3083 3082 3081 3080 3079 3078 3077 3076 3075 3074 3073 3072 3071 3071 3070 3069 3068 3068 3067 3067 3066 3066 3065 3065 3065 3064 3064 3063 3063 3062 3061 3061 3061 3060 3059
3106 3105 3103 3102 3100 3099 3097 3096 3094 3092 3091 3090 3088 3087 3086 3084 3083 3082 3081 3080 3079 3078 3077 3076 3075 3074 3073 3072 3071 3070 3069 3068 3067 3066 3066 3065 3064 3064 3063 3063 3062 3062 3061 3061 3060 3059 3059 3058 3058 3057 3057 3056
3105 3103 3102 3101 3099 3098 3096 3095 3093 3092 3090 3089 3088 3086 3085 3084 3083 3081 3080 3079 3078 3077 3076 3075 3074 3073 3072 3071 3070 3069 3068 3067 3066 3065 3064 3064 3063 3062 3062 3061 3060 3060 3059 3059 3058 3057 3056 3056 3055 3054 3054 3053
3104 3102 3101 3100 3098 3097 3095 3094 3093 3091 3090 3089 3087 3086 3085 3084 3083 3081 3080 3079 3078 3077 3076 3075 3074 3073 3072 3071 3070 3068 3067 3066 3066 3065 3064 3063 3062 3061 3061 3060 3059 3058 3057 3057 3056 3055 3054 3053 3053 3052 3052 3050
3103 3101 3100 3099 3098 3096 3095 3094 3092 3091 3090 3089 3088 3086 3085 3084 3083 3081 3080 3079 3078 3077 3076 3075 3074 3073 3072 3071 3069 3068 3067 3066 3065 3064 3063 3062 3061 3060 3059 3059 3058 3057 3056 3055 3054 3053 3052 3051 3050 3050 3049 3048
3102 3101 3100 3098 3097 3096 3094 3093 3092 3091 3090 3089 3088 3086 3085 3084 3082 3081 3080 3079 3078 3077 3075 3074 3073 3072 3071 3070 3069 3067 3066 3065 3064 3063 3062 3061 3060 3059 3058 3057 3056 3055 3054 3053 3052 3051 3050 3048 3047 3046 3046 3045
3101 3100 3099 3098 3097 3095 3094 3093 3092 3090 3089 3088 3087 3086 3084 3083 3082 3081 3079 3078 3077 3076 3075 3074 3072 3071 3070 3069 3068 3067 3066 3064 3063 3062 3061 3060 3059 3058 3057 3056 3055 3054 3052 3051 3050 3049 3047 3046 3045 3044 3043 3042
3101 3100 3099 3097 3096 3095 3093 3092 3091 3089 3088 3087 3086 3085 3084 3082 3081 3080 3079 3077 3076 3075 3074 3073 3072 3071 3069 3068 3067 3066 3065 3063 3062 3061 3060 3059 3057 3056 3055 3054 3053 3052 3051 3049 3048 3047 3045 3044 3043 3042 3041 3040
3100 3099 3098 3097 3095 3094 3092 3091 3090 3089 3087 3086 3085 3084 3083 3081 3080 3079 3078 3076 3075 3074 3073 3072 3071 3069 3068 3067 3066 3065 3064 3062 3061 3060 3058 3057 3056 3055 3054 3053 3052 3051 3050 3048 3047 3045 3044 3042 3041 3040 3038 3037